Tracking 27420 objects as of 11-Jun-2023
HD Live streaming from Space Station
objects crossing your sky now

STARLINK-5987

Track STARLINK-5987 now!
10-day predictions
STARLINK-5987 is classified as:


NORAD ID: 56455
Int'l Code: 2023-064H
Perigee: 380.1 km
Apogee: 384.7 km
Inclination: 70.0 °
Period: 92.1 minutes
Semi major axis: 6753 km
RCS: Unknown
Launch date: May 10, 2023
Source: United States (US)
Launch site: AIR FORCE WESTERN TEST RANGE (AFWTR)
Your satellite tracking list
Your tracking list is empty




NASA's NSSDC Master Catalog

Two Line Element Set (TLE):
1 56455U 23064H   23161.91667824 -.00901457  00000-0 -10312-1 0  9992
2 56455  70.0003 157.6492 0003405 264.3548 306.8400 15.64306311  5270
Source of the keplerian elements: AFSPC